BREEZE-M R/B, 43433

Orbit data source: Space-Track

BREEZE-M R/B, 43433 is space debris in GEO originally from a launch on Wed, 18 Apr 2018 UTC launched from the Tyuratam Missile And Space Complex (TTMTR). Debris objects in space refer to the collection of defunct objects orbiting the Earth. Examples of debris include non-operational satellites, rocket bodies, and fragments generated from explosions, collisions, or faulty payload assembly.

Loading next visibility...
BREEZE-M R/B details
Identifier
43433, 2018-037B
Orbit
GEO
Last TLE update1 day ago
Origin
Flag of CISKhrunichev (CIS)
ManufacturerKhrunichev
MissionSpacecraft
Bus & MotorBRIZ, Unknown motor
Mass~1,600 kg wet, 1,600 kg dry
Launch date (UTC)
2018-04-18 (7 years ago)
Launch vehicleUnknown
Launch site
Tyuratam Missile And Space Complex (TTMTR)
Object type
Payload
Rocket body
Debris
Shape & HBRCyl, 4 m
Radar Cross Section14.451 m²

Expand to show TLE details & history

TLE from 1 day ago
0 BREEZE-M R/B
1 43433U 18037B   25043.77952300 -.00000192  00000-0  00000-0 0  9996
2 43433   6.7485  76.4580 0690181  16.7143 345.6252  0.90514290 22771
Epoch: 2025-02-12T18:42Z
Definitive object data (Epoch: 2025-02-12T18:42:30.787Z)
Latitude0.00001°
Longitude12.95397°
Altitude35,769.142 km
Speed3.176 km/s
True Right ascension05h 06m 35s
True Declination0° 00' 00"
Sunlit
Object was in daylight at TLE epoch
Visualization TLE readout
Latitude-3.99289°
Longitude-23.03174°
Altitude36,762.451 km
Speed3.106 km/s
Apparent Right ascension03h 08m 42s
Apparent Declination-9° 28' 29"
Sunlit
Object is in daylight
Visualization observer readout
Local Sidereal Time21:26:40
Azimuth100.138° ESE
Elevation-2.658°
Doppler factor1
Orbital elements
Apogee altitude41,881.604 km
Perigee altitude35,650.1 km
Semi-major axis45,143.989 km
Eccentricity0.0690181
Inclination6.7485°
RAAN76.458°
Arg. of periapsis16.7143°
True anomaly343.48388°
Mean anomaly345.6252°
Eccentric anomaly344.5733°
Mean motion0.22628 °/min
BSTARUnknown
Orbital period1590.96 mins
Loading historical data...
43433 neighbors
Authenticating...
Loading maneuver chart data...
Loading historical data...
Loading historical data...
Loading historical data...
Loading historical data...
Loading historical data...
Loading historical data...
Loading historical data...
Other satellites on launch #37 in the year 2018 (2018-04-18 UTC)

BREEZE-M R/B Visibility forecast

Observer location: undefined°, undefined

Span
Click to sort rows by Start time (UTC) header in descending order
Start Az.
Max El. time (UTC)
Max El. Az.
Max El.
End time (UTC)
End Az.
577 mins2025-02-14 09:13:55.603Z103.674° ESE2025-02-14 18:50:55.603Z130.065° SE20.583°2025-02-14 18:50:55.603Z130.065° SE
|